{"data":{"norad_id":35933,"intl_designator":"2009-051C","name":"BEESAT-1","alt_names":[],"object_type":"PAYLOAD","status":"ACTIVE","operator":null,"country":"GER","launch_date":"2009-09-23","launch_site_code":"SRILR","launch_vehicle":null,"mission":null,"orbit_class":"UNKNOWN","rcs_meters":0.029,"size_class":null,"mass_kg":null,"dimensions":null,"purposes":["comms","tech_demo"],"wikipedia_slug":null,"has_3d_model":false,"image_url":null,"decayed_at":null,"tle_current":{"epoch":"2026-09-19T23:32:56.626080Z","epoch_age_seconds":59233,"freshness":"FRESH","line1":"1 35933U 09051C   26262.98121095  .00000495  00000+0  10890-3 0  9999","line2":"2 35933  98.3868 171.9170 0004187 302.4264  57.6531 14.61845269903032","mean_motion":14.61845269,"eccentricity":0.0004187,"inclination_deg":98.3868,"raan_deg":171.917,"arg_perigee_deg":302.4264,"mean_anomaly_deg":57.6531,"bstar":0.0001089,"rev_number":90303,"period_min":98.505637397934,"perigee_km":684.2637852287,"apogee_km":690.18031689806,"semimajor_km":7065.3590510634,"source":"CELESTRAK","updated_at":"2026-09-20T09:00:47.987590Z"}}}